OCN62G EDDF-LGMK

Flight info

Callsign OCN62G
Flight time 2h 31m
Altitude 35000
Route CINDY8S CINDY Z74 LAMPU DCT NOMBO Y161 MAH DCT VAVOR DCT RADIZ DCT NIPEL DCT ABISO DCT NEMEK DCT ELTIB DCT GLOMY DCT INLOT DCT PINDO DCT SKP UN137 AGAPU
Aircraft A320/M-SDE2E3FGIJ1LORWXYZ/HB1

Departure

Time 2026-05-08 11:46
Airport Frankfurt Main Airport (EDDF)

Arrival

Time 2026-05-08 14:17
Airport Mykonos Island National Airport (LGMK)
Time Latitude Longitude Altitude Speed Heading
2026-05-08 11:26 50.04884 8.57704 357 ft 4 kts 114°
2026-05-08 11:26 50.04874 8.57742 364 ft 4 kts 114°
2026-05-08 11:27 50.04863 8.57780 366 ft 4 kts 114°
2026-05-08 11:27 50.04852 8.57819 361 ft 4 kts 113°
2026-05-08 11:27 50.04850 8.57826 358 ft 0 kts 113°
2026-05-08 11:34 50.04845 8.57843 364 ft 6 kts 113°
2026-05-08 11:34 50.04795 8.57910 357 ft 14 kts 160°
2026-05-08 11:34 50.04680 8.57975 361 ft 21 kts 160°
2026-05-08 11:34 50.04554 8.58022 362 ft 15 kts 213°
2026-05-08 11:35 50.04506 8.57867 367 ft 21 kts 249°
2026-05-08 11:35 50.04449 8.57627 364 ft 24 kts 250°
2026-05-08 11:35 50.04388 8.57366 362 ft 26 kts 249°
2026-05-08 11:35 50.04323 8.57096 364 ft 26 kts 250°
2026-05-08 11:36 50.04262 8.56844 361 ft 25 kts 249°
2026-05-08 11:36 50.04198 8.56577 355 ft 28 kts 249°
2026-05-08 11:36 50.04134 8.56307 354 ft 24 kts 250°
2026-05-08 11:36 50.04076 8.56064 359 ft 21 kts 249°
2026-05-08 11:37 50.04025 8.55851 355 ft 22 kts 250°
2026-05-08 11:37 50.03969 8.55619 352 ft 24 kts 250°
2026-05-08 11:37 50.03912 8.55377 351 ft 24 kts 249°
2026-05-08 11:37 50.03852 8.55127 353 ft 25 kts 249°
2026-05-08 11:38 50.03789 8.54866 350 ft 27 kts 250°
2026-05-08 11:38 50.03723 8.54590 346 ft 28 kts 250°
2026-05-08 11:38 50.03660 8.54328 342 ft 21 kts 249°
2026-05-08 11:38 50.03609 8.54112 345 ft 22 kts 249°
2026-05-08 11:39 50.03554 8.53882 340 ft 23 kts 250°
2026-05-08 11:39 50.03495 8.53636 337 ft 25 kts 249°
2026-05-08 11:39 50.03444 8.53421 337 ft 18 kts 249°
2026-05-08 11:39 50.03398 8.53231 336 ft 20 kts 249°
2026-05-08 11:40 50.03349 8.53025 334 ft 21 kts 250°
2026-05-08 11:40 50.03303 8.52834 335 ft 12 kts 249°
2026-05-08 11:40 50.03284 8.52753 334 ft 2 kts 249°
2026-05-08 11:40 50.03283 8.52752 334 ft 0 kts 249°
2026-05-08 11:43 50.03266 8.52669 334 ft 15 kts 263°
2026-05-08 11:44 50.03241 8.52594 333 ft 3 kts 179°
2026-05-08 11:44 50.03240 8.52594 335 ft 0 kts 179°
2026-05-08 11:44 50.03238 8.52594 335 ft 2 kts 179°
2026-05-08 11:45 50.02850 8.52599 335 ft 87 kts 179°
2026-05-08 11:45 50.02359 8.52604 335 ft 125 kts 180°
2026-05-08 11:45 50.01328 8.52613 335 ft 170 kts 180°
2026-05-08 11:45 50.00123 8.52606 889 ft 172 kts 179°
2026-05-08 11:46 49.98925 8.52610 1609 ft 175 kts 178°
2026-05-08 11:46 49.97641 8.52630 1993 ft 191 kts 174°
2026-05-08 11:46 49.96403 8.53488 2307 ft 206 kts 135°
2026-05-08 11:46 49.95600 8.55398 2666 ft 219 kts 117°
2026-05-08 11:47 49.94863 8.57529 3274 ft 226 kts 118°
2026-05-08 11:47 49.94184 8.59752 3979 ft 230 kts 105°
2026-05-08 11:47 49.93979 8.62259 4556 ft 240 kts 94°
2026-05-08 11:47 49.93882 8.64963 4982 ft 259 kts 93°
2026-05-08 11:48 49.93683 8.67732 5628 ft 267 kts 106°
2026-05-08 11:48 49.92835 8.70298 6347 ft 272 kts 130°
2026-05-08 11:48 49.91387 8.72212 7130 ft 275 kts 144°
2026-05-08 11:48 49.89825 8.73952 7893 ft 278 kts 143°
2026-05-08 11:49 49.88404 8.76003 8612 ft 281 kts 129°
2026-05-08 11:49 49.87320 8.78545 9335 ft 284 kts 120°
2026-05-08 11:49 49.86351 8.81225 10017 ft 286 kts 120°
2026-05-08 11:49 49.85364 8.83972 10475 ft 301 kts 120°
2026-05-08 11:50 49.84303 8.86914 10656 ft 324 kts 120°
2026-05-08 11:50 49.83169 8.90042 10959 ft 340 kts 120°
2026-05-08 11:50 49.81997 8.93269 11546 ft 346 kts 120°
2026-05-08 11:50 49.80809 8.96539 12184 ft 350 kts 120°
2026-05-08 11:51 49.79602 8.99843 12785 ft 355 kts 120°
2026-05-08 11:51 49.78376 9.03180 13418 ft 358 kts 121°
2026-05-08 11:51 49.77145 9.06551 14039 ft 361 kts 120°
2026-05-08 11:51 49.76102 9.10088 14581 ft 366 kts 109°
2026-05-08 11:52 49.75448 9.13906 15135 ft 370 kts 105°
2026-05-08 11:52 49.74600 9.17675 15685 ft 373 kts 116°
2026-05-08 11:52 49.73276 9.21143 16220 ft 377 kts 128°
2026-05-08 11:52 49.71574 9.24231 16833 ft 379 kts 133°
2026-05-08 11:53 49.69819 9.27298 17421 ft 382 kts 133°
2026-05-08 11:53 49.68064 9.30394 17949 ft 385 kts 133°
2026-05-08 11:53 49.66286 9.33532 18505 ft 390 kts 133°
2026-05-08 11:53 49.64496 9.36680 19047 ft 391 kts 133°
2026-05-08 11:54 49.62673 9.39814 19544 ft 393 kts 137°
2026-05-08 11:54 49.60586 9.42526 19994 ft 393 kts 147°
2026-05-08 11:54 49.58257 9.44745 20437 ft 394 kts 151°
2026-05-08 11:54 49.55882 9.46907 20874 ft 398 kts 151°
2026-05-08 11:55 49.53498 9.49070 21302 ft 399 kts 151°
2026-05-08 11:55 49.51094 9.51258 21728 ft 403 kts 151°
2026-05-08 11:55 49.48708 9.53437 22156 ft 405 kts 151°
2026-05-08 11:55 49.46275 9.55658 22575 ft 407 kts 152°
2026-05-08 11:56 49.43829 9.57887 22987 ft 410 kts 151°
2026-05-08 11:56 49.41366 9.60131 23363 ft 413 kts 151°
2026-05-08 11:56 49.38886 9.62389 23750 ft 415 kts 152°
2026-05-08 11:56 49.36395 9.64646 24117 ft 417 kts 152°
2026-05-08 11:57 49.33967 9.67119 24472 ft 421 kts 143°
2026-05-08 11:57 49.31793 9.70166 24837 ft 426 kts 137°
2026-05-08 11:57 49.29694 9.73381 25202 ft 428 kts 137°
2026-05-08 11:57 49.27581 9.76614 25566 ft 430 kts 137°
2026-05-08 11:58 49.25470 9.79846 25882 ft 430 kts 137°
2026-05-08 11:58 49.23346 9.83081 26184 ft 431 kts 138°
2026-05-08 11:58 49.21209 9.86331 26462 ft 434 kts 137°
2026-05-08 11:59 49.16918 9.92851 27076 ft 438 kts 138°
2026-05-08 11:59 49.14735 9.96156 27386 ft 440 kts 138°
2026-05-08 11:59 49.12559 9.99454 27664 ft 442 kts 138°
2026-05-08 11:59 49.10368 10.02761 27955 ft 441 kts 139°
2026-05-08 12:00 49.08168 10.06072 28167 ft 446 kts 139°
2026-05-08 12:00 49.05949 10.09404 28413 ft 448 kts 139°
2026-05-08 12:00 49.03693 10.12701 28680 ft 450 kts 140°
2026-05-08 12:00 49.01397 10.15955 28961 ft 451 kts 141°
2026-05-08 12:01 48.99078 10.19177 29195 ft 452 kts 142°
2026-05-08 12:01 48.96739 10.22405 29433 ft 453 kts 142°
2026-05-08 12:01 48.94409 10.25648 29636 ft 455 kts 142°
2026-05-08 12:01 48.92079 10.28926 29853 ft 457 kts 141°
2026-05-08 12:02 48.89777 10.32189 30075 ft 461 kts 142°
2026-05-08 12:02 48.87430 10.35518 30325 ft 462 kts 141°
2026-05-08 12:02 48.85080 10.38849 30574 ft 463 kts 142°
2026-05-08 12:02 48.82719 10.42199 30847 ft 465 kts 141°
2026-05-08 12:03 48.80415 10.45630 31179 ft 464 kts 139°
2026-05-08 12:03 48.78181 10.49158 31470 ft 465 kts 138°
2026-05-08 12:03 48.75979 10.52756 31756 ft 464 kts 137°
2026-05-08 12:03 48.73816 10.56331 32009 ft 464 kts 137°
2026-05-08 12:04 48.71611 10.59962 32304 ft 464 kts 137°
2026-05-08 12:04 48.69412 10.63535 32604 ft 463 kts 138°
2026-05-08 12:04 48.67210 10.67061 32908 ft 463 kts 138°
2026-05-08 12:04 48.64979 10.70587 33216 ft 462 kts 139°
2026-05-08 12:05 48.62760 10.74079 33506 ft 460 kts 139°
2026-05-08 12:05 48.60543 10.77565 33766 ft 460 kts 138°
2026-05-08 12:05 48.58335 10.81046 34024 ft 458 kts 138°
2026-05-08 12:05 48.56140 10.84525 34232 ft 458 kts 138°
2026-05-08 12:06 48.53956 10.88013 34416 ft 458 kts 138°
2026-05-08 12:06 48.51769 10.91530 34612 ft 459 kts 138°
2026-05-08 12:06 48.49612 10.95002 34814 ft 459 kts 138°
2026-05-08 12:06 48.47425 10.98506 35035 ft 459 kts 138°
2026-05-08 12:07 48.43010 11.05438 35109 ft 456 kts 138°
2026-05-08 12:07 48.38577 11.12274 35109 ft 456 kts 139°
2026-05-08 12:08 48.34148 11.19113 35103 ft 455 kts 140°
2026-05-08 12:08 48.29746 11.25918 35095 ft 453 kts 140°
2026-05-08 12:09 48.25629 11.33100 35086 ft 458 kts 128°
2026-05-08 12:09 48.22438 11.41323 35072 ft 460 kts 126°
2026-05-08 12:10 48.19234 11.49607 35074 ft 461 kts 126°
2026-05-08 12:10 48.15998 11.57899 35064 ft 460 kts 126°
2026-05-08 12:11 48.12771 11.66203 35076 ft 461 kts 126°
2026-05-08 12:11 48.09546 11.74493 35084 ft 461 kts 126°
2026-05-08 12:12 48.06312 11.82790 35080 ft 463 kts 126°
2026-05-08 12:12 48.03072 11.91049 35083 ft 464 kts 127°
2026-05-08 12:13 47.99792 11.99348 35098 ft 464 kts 127°
2026-05-08 12:13 47.96479 12.07708 35109 ft 466 kts 127°
2026-05-08 12:14 47.92927 12.15611 35105 ft 454 kts 139°
2026-05-08 12:14 47.88338 12.21852 35094 ft 444 kts 147°
2026-05-08 12:15 47.83610 12.27747 35085 ft 441 kts 147°
2026-05-08 12:15 47.78911 12.33628 35065 ft 442 kts 147°
2026-05-08 12:16 47.74175 12.39535 35052 ft 446 kts 147°
2026-05-08 12:16 47.69412 12.45444 35062 ft 445 kts 147°
2026-05-08 12:17 47.64650 12.51353 35073 ft 446 kts 147°
2026-05-08 12:17 47.59935 12.57312 35074 ft 446 kts 145°
2026-05-08 12:18 47.55356 12.63534 35078 ft 447 kts 143°
2026-05-08 12:18 47.50798 12.69811 35059 ft 447 kts 144°
2026-05-08 12:19 47.46241 12.75992 35069 ft 447 kts 144°
2026-05-08 12:19 47.41643 12.82148 35073 ft 446 kts 144°
2026-05-08 12:20 47.37023 12.88298 35059 ft 448 kts 144°
2026-05-08 12:20 47.32391 12.94457 35058 ft 448 kts 144°
2026-05-08 12:21 47.27758 13.00631 35069 ft 449 kts 144°
2026-05-08 12:21 47.23134 13.06779 35075 ft 448 kts 144°
2026-05-08 12:22 47.18516 13.12893 35077 ft 447 kts 144°
2026-05-08 12:22 47.13890 13.19018 35077 ft 446 kts 144°
2026-05-08 12:23 47.09263 13.25116 35082 ft 446 kts 144°
2026-05-08 12:23 47.04674 13.31175 35067 ft 447 kts 144°
2026-05-08 12:24 47.00031 13.37237 35062 ft 446 kts 144°
2026-05-08 12:24 46.95390 13.43289 35064 ft 447 kts 144°
2026-05-08 12:25 46.90748 13.49342 35075 ft 447 kts 144°
2026-05-08 12:25 46.86106 13.55379 35070 ft 445 kts 144°
2026-05-08 12:26 46.81472 13.61398 35070 ft 446 kts 144°
2026-05-08 12:26 46.76850 13.67392 35064 ft 444 kts 144°
2026-05-08 12:27 46.72253 13.73331 35070 ft 445 kts 144°
2026-05-08 12:27 46.67612 13.79340 35074 ft 446 kts 144°
2026-05-08 12:28 46.62956 13.85322 35084 ft 445 kts 144°
2026-05-08 12:28 46.58304 13.91272 35077 ft 445 kts 144°
2026-05-08 12:29 46.53658 13.97222 35074 ft 445 kts 144°
2026-05-08 12:29 46.49014 14.03154 35095 ft 442 kts 143°
2026-05-08 12:30 46.45254 14.08233 35086 ft 445 kts 141°
2026-05-08 12:30 46.40860 14.14550 35059 ft 444 kts 140°
2026-05-08 12:31 46.36477 14.20868 35053 ft 446 kts 140°
2026-05-08 12:31 46.32041 14.27133 35053 ft 445 kts 141°
2026-05-08 12:32 46.27598 14.33338 35061 ft 445 kts 141°
2026-05-08 12:32 46.23140 14.39547 35067 ft 444 kts 141°
2026-05-08 12:33 46.18704 14.45759 35054 ft 445 kts 141°
2026-05-08 12:33 46.14247 14.51968 35049 ft 445 kts 141°
2026-05-08 12:34 46.09808 14.58127 35042 ft 446 kts 141°
2026-05-08 12:34 46.05340 14.64325 35041 ft 446 kts 141°
2026-05-08 12:35 46.00870 14.70511 35047 ft 447 kts 141°
2026-05-08 12:35 45.96375 14.76696 35062 ft 446 kts 141°
2026-05-08 12:36 45.91901 14.82845 35083 ft 446 kts 140°
2026-05-08 12:36 45.87422 14.89015 35085 ft 446 kts 140°
2026-05-08 12:37 45.82942 14.95170 35095 ft 446 kts 141°
2026-05-08 12:37 45.78462 15.01290 35094 ft 445 kts 141°
2026-05-08 12:38 45.73962 15.07412 35085 ft 447 kts 141°
2026-05-08 12:38 45.69443 15.13539 35096 ft 447 kts 141°
2026-05-08 12:39 45.64959 15.19619 35094 ft 445 kts 141°
2026-05-08 12:39 45.60471 15.25704 35079 ft 445 kts 141°
2026-05-08 12:40 45.55957 15.31765 35077 ft 445 kts 143°
2026-05-08 12:40 45.51302 15.37547 35065 ft 442 kts 145°
2026-05-08 12:41 45.46583 15.43187 35064 ft 442 kts 145°
2026-05-08 12:41 45.41871 15.48867 35065 ft 445 kts 144°
2026-05-08 12:42 45.37179 15.54596 35098 ft 445 kts 144°
2026-05-08 12:42 45.32495 15.60334 35079 ft 443 kts 144°
2026-05-08 12:43 45.27820 15.66044 35081 ft 442 kts 144°
2026-05-08 12:43 45.23135 15.71734 35062 ft 444 kts 144°
2026-05-08 12:44 45.18449 15.77403 35096 ft 445 kts 144°
2026-05-08 12:44 45.13733 15.83097 35101 ft 444 kts 144°
2026-05-08 12:45 45.09026 15.88762 35100 ft 444 kts 144°
2026-05-08 12:45 45.04335 15.94386 35080 ft 441 kts 144°
2026-05-08 12:46 44.99642 16.00000 35090 ft 442 kts 144°
2026-05-08 12:46 44.94943 16.05623 35074 ft 442 kts 144°
2026-05-08 12:47 44.90268 16.11221 35069 ft 440 kts 144°
2026-05-08 12:47 44.85608 16.16763 35070 ft 441 kts 144°
2026-05-08 12:48 44.80922 16.22318 35069 ft 440 kts 144°
2026-05-08 12:48 44.76233 16.27876 35067 ft 441 kts 144°
2026-05-08 12:49 44.71529 16.33437 35077 ft 441 kts 144°
2026-05-08 12:49 44.66839 16.38958 35080 ft 439 kts 144°
2026-05-08 12:50 44.62166 16.44484 35071 ft 439 kts 144°
2026-05-08 12:50 44.57481 16.50011 35075 ft 442 kts 144°
2026-05-08 12:51 44.50410 16.58285 35079 ft 439 kts 144°
2026-05-08 12:52 44.45747 16.63731 35071 ft 439 kts 144°
2026-05-08 12:52 44.38735 16.71915 35049 ft 437 kts 144°
2026-05-08 12:53 44.34051 16.77343 35040 ft 438 kts 144°
2026-05-08 12:53 44.29369 16.82752 35035 ft 436 kts 144°
2026-05-08 12:54 44.24696 16.88159 35033 ft 437 kts 144°
2026-05-08 12:54 44.20021 16.93559 35031 ft 437 kts 144°
2026-05-08 12:55 44.15317 16.98992 35057 ft 440 kts 144°
2026-05-08 12:55 44.10611 17.04426 35060 ft 439 kts 144°
2026-05-08 12:56 44.05892 17.09838 35051 ft 441 kts 144°
2026-05-08 12:56 44.01159 17.15252 35055 ft 440 kts 144°
2026-05-08 12:57 43.96440 17.20639 35045 ft 438 kts 144°
2026-05-08 12:57 43.91762 17.25970 35036 ft 437 kts 143°
2026-05-08 12:58 43.87077 17.31304 35033 ft 435 kts 144°
2026-05-08 12:58 43.82391 17.36609 35030 ft 436 kts 144°
2026-05-08 12:59 43.77690 17.41934 35012 ft 437 kts 144°
2026-05-08 12:59 43.72989 17.47252 35011 ft 436 kts 144°
2026-05-08 13:00 43.68294 17.52527 35016 ft 434 kts 144°
2026-05-08 13:00 43.63603 17.57810 34984 ft 435 kts 144°
2026-05-08 13:01 43.58910 17.63099 34985 ft 435 kts 144°
2026-05-08 13:01 43.54218 17.68366 34983 ft 435 kts 143°
2026-05-08 13:02 43.49594 17.73769 34998 ft 436 kts 143°
2026-05-08 13:02 43.44993 17.79212 35005 ft 436 kts 142°
2026-05-08 13:03 43.40408 17.84579 34997 ft 435 kts 143°
2026-05-08 13:03 43.35795 17.89941 34987 ft 434 kts 143°
2026-05-08 13:04 43.31168 17.95293 34999 ft 435 kts 143°
2026-05-08 13:04 43.26536 18.00649 34997 ft 435 kts 143°
2026-05-08 13:05 43.21916 18.06006 34986 ft 433 kts 142°
2026-05-08 13:05 43.17307 18.11332 34983 ft 434 kts 143°
2026-05-08 13:06 43.12675 18.16661 34996 ft 434 kts 143°
2026-05-08 13:06 43.08064 18.21962 34985 ft 434 kts 143°
2026-05-08 13:07 43.03431 18.27263 35000 ft 434 kts 143°
2026-05-08 13:07 42.98785 18.32564 34987 ft 434 kts 143°
2026-05-08 13:08 42.94140 18.37870 34993 ft 436 kts 142°
2026-05-08 13:08 42.89518 18.43140 35003 ft 436 kts 142°
2026-05-08 13:09 42.84853 18.48459 35003 ft 438 kts 142°
2026-05-08 13:09 42.80154 18.53788 35018 ft 439 kts 142°
2026-05-08 13:10 42.75458 18.59101 35040 ft 439 kts 142°
2026-05-08 13:10 42.70797 18.64370 35018 ft 436 kts 142°
2026-05-08 13:11 42.66111 18.69641 35016 ft 437 kts 142°
2026-05-08 13:11 42.61437 18.74863 35022 ft 437 kts 143°
2026-05-08 13:12 42.56686 18.80011 35013 ft 437 kts 144°
2026-05-08 13:12 42.51905 18.85107 35010 ft 436 kts 144°
2026-05-08 13:13 42.47137 18.90201 35006 ft 436 kts 144°
2026-05-08 13:13 42.42377 18.95312 35009 ft 437 kts 144°
2026-05-08 13:14 42.37612 19.00429 35016 ft 437 kts 144°
2026-05-08 13:14 42.32826 19.05538 35012 ft 439 kts 144°
2026-05-08 13:15 42.28030 19.10667 34992 ft 441 kts 144°
2026-05-08 13:15 42.23254 19.15759 34998 ft 440 kts 144°
2026-05-08 13:16 42.18431 19.20880 35016 ft 439 kts 144°
2026-05-08 13:16 42.13632 19.25959 35009 ft 437 kts 144°
2026-05-08 13:17 42.08850 19.31018 34984 ft 438 kts 144°
2026-05-08 13:17 42.04051 19.36077 34986 ft 437 kts 144°
2026-05-08 13:18 42.00069 19.40286 34988 ft 438 kts 144°
2026-05-08 13:18 41.95278 19.45333 34979 ft 436 kts 145°
2026-05-08 13:19 41.90473 19.50367 34985 ft 439 kts 145°
2026-05-08 13:19 41.85654 19.55420 35004 ft 440 kts 145°
2026-05-08 13:20 41.80822 19.60474 35012 ft 441 kts 145°
2026-05-08 13:20 41.75997 19.65514 35005 ft 440 kts 145°
2026-05-08 13:21 41.71170 19.70535 35006 ft 439 kts 145°
2026-05-08 13:21 41.66374 19.75514 34996 ft 440 kts 145°
2026-05-08 13:22 41.61529 19.80551 35013 ft 442 kts 145°
2026-05-08 13:22 41.56676 19.85584 35007 ft 441 kts 145°
2026-05-08 13:23 41.51812 19.90603 35012 ft 441 kts 145°
2026-05-08 13:23 41.46981 19.95585 35008 ft 442 kts 146°
2026-05-08 13:24 41.42110 20.00596 35011 ft 442 kts 146°
2026-05-08 13:24 41.37246 20.05607 35006 ft 442 kts 146°
2026-05-08 13:25 41.32368 20.10620 35000 ft 443 kts 146°
2026-05-08 13:25 41.27476 20.15620 35010 ft 444 kts 146°
2026-05-08 13:26 41.22568 20.20618 35012 ft 445 kts 146°
2026-05-08 13:26 41.17660 20.25631 35012 ft 444 kts 147°
2026-05-08 13:27 41.12778 20.30622 35010 ft 443 kts 147°
2026-05-08 13:27 41.07885 20.35586 35023 ft 444 kts 147°
2026-05-08 13:28 41.03005 20.40526 35023 ft 444 kts 147°
2026-05-08 13:28 40.98089 20.45502 35032 ft 445 kts 147°
2026-05-08 13:29 40.93158 20.50470 35011 ft 445 kts 147°
2026-05-08 13:29 40.88211 20.55456 35041 ft 448 kts 147°
2026-05-08 13:30 40.83248 20.60453 35054 ft 450 kts 148°
2026-05-08 13:30 40.78247 20.65472 35060 ft 451 kts 148°
2026-05-08 13:31 40.73243 20.70500 35056 ft 451 kts 148°
2026-05-08 13:31 40.68245 20.75516 35052 ft 451 kts 148°
2026-05-08 13:32 40.63292 20.80470 35050 ft 450 kts 148°
2026-05-08 13:32 40.58292 20.85448 35045 ft 452 kts 148°
2026-05-08 13:33 40.53256 20.90448 35051 ft 453 kts 148°
2026-05-08 13:33 40.48418 20.95795 35050 ft 460 kts 137°
2026-05-08 13:34 40.44709 21.02775 35152 ft 472 kts 126°
2026-05-08 13:34 40.42980 21.06451 35338 ft 473 kts 126°
2026-05-08 13:34 40.41253 21.10119 35543 ft 472 kts 126°
2026-05-08 13:35 40.39522 21.13793 35738 ft 473 kts 126°
2026-05-08 13:35 40.37787 21.17469 35954 ft 475 kts 127°
2026-05-08 13:35 40.36047 21.21156 36231 ft 475 kts 126°
2026-05-08 13:35 40.34314 21.24831 36471 ft 474 kts 126°
2026-05-08 13:36 40.32578 21.28508 36694 ft 473 kts 126°
2026-05-08 13:36 40.30846 21.32168 36942 ft 472 kts 126°
2026-05-08 13:36 40.29117 21.35819 37068 ft 470 kts 126°
2026-05-08 13:36 40.27401 21.39446 37076 ft 465 kts 126°
2026-05-08 13:37 40.23992 21.46624 37073 ft 466 kts 127°
2026-05-08 13:37 40.20544 21.53818 37070 ft 467 kts 127°
2026-05-08 13:38 40.17123 21.60970 37092 ft 465 kts 127°
2026-05-08 13:38 40.13686 21.68163 37064 ft 466 kts 126°
2026-05-08 13:39 40.10242 21.75361 37048 ft 467 kts 127°
2026-05-08 13:39 40.06778 21.82557 37059 ft 468 kts 127°
2026-05-08 13:40 40.03304 21.89732 37061 ft 467 kts 127°
2026-05-08 13:40 39.99851 21.96875 37076 ft 469 kts 127°
2026-05-08 13:41 39.96363 22.04095 37103 ft 470 kts 127°
2026-05-08 13:41 39.92868 22.11290 37101 ft 469 kts 127°
2026-05-08 13:42 39.89383 22.18463 37084 ft 470 kts 127°
2026-05-08 13:42 39.85887 22.25640 37093 ft 468 kts 127°
2026-05-08 13:43 39.82375 22.32814 37081 ft 471 kts 127°
2026-05-08 13:43 39.78857 22.39997 37084 ft 470 kts 128°
2026-05-08 13:44 39.75344 22.47144 37077 ft 468 kts 128°
2026-05-08 13:44 39.71855 22.54229 37067 ft 469 kts 128°
2026-05-08 13:45 39.68348 22.61362 37056 ft 469 kts 128°
2026-05-08 13:45 39.64844 22.68470 37048 ft 467 kts 128°
2026-05-08 13:46 39.61314 22.75572 37045 ft 469 kts 128°
2026-05-08 13:46 39.57771 22.82684 37047 ft 470 kts 128°
2026-05-08 13:47 39.54226 22.89806 37048 ft 471 kts 128°
2026-05-08 13:47 39.50664 22.96965 37049 ft 473 kts 128°
2026-05-08 13:48 39.47079 23.04116 37052 ft 474 kts 128°
2026-05-08 13:48 39.43537 23.11216 37033 ft 472 kts 128°
2026-05-08 13:49 39.39986 23.18299 37017 ft 473 kts 128°
2026-05-08 13:49 39.36387 23.25437 37027 ft 474 kts 128°
2026-05-08 13:50 39.32761 23.32598 37035 ft 477 kts 128°
2026-05-08 13:50 39.29115 23.39789 37045 ft 479 kts 129°
2026-05-08 13:51 39.25467 23.46986 37055 ft 479 kts 129°
2026-05-08 13:51 39.21836 23.54174 37060 ft 477 kts 129°
2026-05-08 13:52 39.18003 23.61026 37075 ft 467 kts 140°
2026-05-08 13:52 39.15661 23.63887 36945 ft 461 kts 148°
2026-05-08 13:52 39.13111 23.66336 36701 ft 458 kts 151°
2026-05-08 13:53 39.10528 23.68762 36449 ft 458 kts 151°
2026-05-08 13:53 39.07950 23.71188 36199 ft 458 kts 151°
2026-05-08 13:53 39.05372 23.73610 35951 ft 460 kts 151°
2026-05-08 13:53 39.02788 23.76037 35690 ft 462 kts 152°
2026-05-08 13:54 39.00181 23.78488 35433 ft 466 kts 151°
2026-05-08 13:54 38.97561 23.80958 35184 ft 468 kts 152°
2026-05-08 13:54 38.94938 23.83438 34937 ft 469 kts 152°
2026-05-08 13:54 38.92301 23.85932 34685 ft 472 kts 152°
2026-05-08 13:55 38.89660 23.88422 34422 ft 471 kts 152°
2026-05-08 13:55 38.87017 23.90905 34177 ft 469 kts 152°
2026-05-08 13:55 38.81791 23.95824 33314 ft 463 kts 152°
2026-05-08 13:56 38.79192 23.98264 32730 ft 461 kts 152°
2026-05-08 13:56 38.76610 24.00687 32143 ft 458 kts 152°
2026-05-08 13:56 38.74042 24.03083 31567 ft 455 kts 151°
2026-05-08 13:56 38.71485 24.05467 31003 ft 453 kts 152°
2026-05-08 13:57 38.68974 24.07806 30441 ft 449 kts 151°
2026-05-08 13:57 38.66459 24.10152 29870 ft 447 kts 151°
2026-05-08 13:57 38.63958 24.12489 29328 ft 442 kts 151°
2026-05-08 13:57 38.61487 24.14805 28770 ft 439 kts 151°
2026-05-08 13:58 38.59025 24.17096 28265 ft 438 kts 150°
2026-05-08 13:58 38.56582 24.19357 27735 ft 429 kts 151°
2026-05-08 13:58 38.54171 24.21589 27227 ft 427 kts 151°
2026-05-08 13:58 38.51776 24.23814 26731 ft 423 kts 150°
2026-05-08 13:59 38.49409 24.26016 26239 ft 419 kts 151°
2026-05-08 13:59 38.47059 24.28196 25754 ft 415 kts 151°
2026-05-08 13:59 38.44730 24.30345 25268 ft 411 kts 151°
2026-05-08 13:59 38.42427 24.32459 24832 ft 403 kts 153°
2026-05-08 14:00 38.40088 24.34276 24392 ft 396 kts 157°
2026-05-08 14:00 38.37734 24.36052 23936 ft 392 kts 156°
2026-05-08 14:00 38.35393 24.37822 23478 ft 389 kts 156°
2026-05-08 14:00 38.33078 24.39574 23027 ft 387 kts 156°
2026-05-08 14:01 38.30773 24.41315 22589 ft 384 kts 156°
2026-05-08 14:01 38.28482 24.43044 22149 ft 381 kts 156°
2026-05-08 14:01 38.26211 24.44757 21692 ft 378 kts 156°
2026-05-08 14:01 38.23961 24.46453 21258 ft 375 kts 156°
2026-05-08 14:02 38.21712 24.48143 20800 ft 374 kts 156°
2026-05-08 14:02 38.19471 24.49825 20356 ft 373 kts 156°
2026-05-08 14:02 38.17244 24.51499 19922 ft 372 kts 156°
2026-05-08 14:02 38.15013 24.53174 19473 ft 372 kts 156°
2026-05-08 14:03 38.12791 24.54841 19040 ft 371 kts 156°
2026-05-08 14:03 38.10556 24.56523 18597 ft 371 kts 156°
2026-05-08 14:03 38.08341 24.58200 18162 ft 369 kts 156°
2026-05-08 14:03 38.06132 24.59857 17726 ft 368 kts 156°
2026-05-08 14:04 38.03936 24.61504 17283 ft 366 kts 156°
2026-05-08 14:04 38.02484 24.62591 17013 ft 366 kts 156°
2026-05-08 14:04 38.00293 24.64222 16590 ft 364 kts 156°
2026-05-08 14:04 37.98117 24.65843 16160 ft 363 kts 155°
2026-05-08 14:05 37.95242 24.67985 15619 ft 361 kts 155°
2026-05-08 14:05 37.93082 24.69590 15209 ft 359 kts 155°
2026-05-08 14:05 37.90930 24.71190 14810 ft 359 kts 154°
2026-05-08 14:05 37.88774 24.72789 14391 ft 358 kts 154°
2026-05-08 14:06 37.87353 24.73848 14124 ft 356 kts 154°
2026-05-08 14:06 37.85227 24.75432 13720 ft 351 kts 154°
2026-05-08 14:06 37.83118 24.76996 13317 ft 350 kts 154°
2026-05-08 14:06 37.81014 24.78553 12902 ft 349 kts 154°
2026-05-08 14:07 37.78933 24.80107 12488 ft 346 kts 153°
2026-05-08 14:07 37.76859 24.81662 12067 ft 343 kts 154°
2026-05-08 14:07 37.74820 24.83187 11667 ft 338 kts 153°
2026-05-08 14:07 37.72810 24.84682 11272 ft 333 kts 153°
2026-05-08 14:08 37.70842 24.86147 11027 ft 318 kts 153°
2026-05-08 14:08 37.68992 24.87521 10717 ft 303 kts 153°
2026-05-08 14:08 37.67199 24.88846 10264 ft 294 kts 153°
2026-05-08 14:08 37.65487 24.90110 9906 ft 283 kts 153°
2026-05-08 14:09 37.63830 24.91334 9750 ft 271 kts 153°
2026-05-08 14:09 37.62210 24.92527 9350 ft 267 kts 153°
2026-05-08 14:09 37.60617 24.93703 8926 ft 264 kts 153°
2026-05-08 14:09 37.59035 24.94871 8482 ft 263 kts 153°
2026-05-08 14:10 37.57446 24.96031 8036 ft 265 kts 153°
2026-05-08 14:10 37.55866 24.97194 7759 ft 261 kts 153°
2026-05-08 14:10 37.54311 24.98341 7472 ft 256 kts 153°
2026-05-08 14:10 37.52772 24.99466 7131 ft 255 kts 153°
2026-05-08 14:11 37.51243 25.00585 6723 ft 255 kts 152°
2026-05-08 14:11 37.49771 25.01807 6526 ft 255 kts 140°
2026-05-08 14:11 37.48792 25.03618 6350 ft 258 kts 111°
2026-05-08 14:11 37.48552 25.05880 5939 ft 268 kts 84°
2026-05-08 14:12 37.49124 25.08087 5359 ft 261 kts 68°
2026-05-08 14:12 37.49821 25.10172 4833 ft 254 kts 69°
2026-05-08 14:12 37.50481 25.12197 4647 ft 248 kts 68°
2026-05-08 14:12 37.51123 25.14176 4442 ft 239 kts 68°
2026-05-08 14:13 37.51661 25.16116 4173 ft 234 kts 74°
2026-05-08 14:13 37.52130 25.18118 3624 ft 242 kts 75°
2026-05-08 14:13 37.52602 25.20147 3116 ft 241 kts 75°
2026-05-08 14:13 37.53045 25.22143 2829 ft 227 kts 82°
2026-05-08 14:14 37.53050 25.24046 2702 ft 209 kts 102°
2026-05-08 14:14 37.52761 25.25807 2633 ft 199 kts 102°
2026-05-08 14:14 37.52386 25.27373 2501 ft 179 kts 120°
2026-05-08 14:14 37.51695 25.28615 2311 ft 168 kts 134°
2026-05-08 14:15 37.50821 25.29517 2078 ft 160 kts 149°
2026-05-08 14:15 37.49898 25.30286 1873 ft 158 kts 144°
2026-05-08 14:15 37.49033 25.31057 1663 ft 148 kts 144°
2026-05-08 14:15 37.48208 25.31812 1424 ft 143 kts 140°
2026-05-08 14:16 37.47483 25.32678 1174 ft 143 kts 133°
2026-05-08 14:16 37.46728 25.33442 881 ft 139 kts 158°
2026-05-08 14:16 37.45807 25.33801 723 ft 139 kts 160°
2026-05-08 14:16 37.44881 25.34223 584 ft 143 kts 160°
2026-05-08 14:17 37.43955 25.34627 406 ft 134 kts 160°
2026-05-08 14:17 37.43235 25.34946 413 ft 80 kts 161°
2026-05-08 14:17 37.42883 25.35102 412 ft 42 kts 158°
2026-05-08 14:17 37.42748 25.35133 410 ft 14 kts 178°
2026-05-08 14:18 37.42749 25.35180 410 ft 8 kts
2026-05-08 14:18 37.42844 25.35119 410 ft 22 kts 341°
2026-05-08 14:18 37.42988 25.35053 414 ft 22 kts 340°
2026-05-08 14:18 37.43141 25.34986 410 ft 24 kts 341°
2026-05-08 14:19 37.43297 25.34918 413 ft 17 kts 342°
2026-05-08 14:19 37.43395 25.34846 411 ft 16 kts 292°
2026-05-08 14:19 37.43414 25.34784 407 ft 0 kts 290°
2026-05-08 14:21 37.43417 25.34771 408 ft 3 kts 291°
2026-05-08 14:21 37.43465 25.34728 406 ft 9 kts 340°
2026-05-08 14:22 37.43470 25.34681 407 ft 4 kts 250°
2026-05-08 14:22 37.43464 25.34660 407 ft 1 kts 251°
2026-05-08 14:22 37.43463 25.34658 407 ft 0 kts 251°
2026-05-08 14:25 37.43463 25.34657 406 ft 0 kts 251°